Flag for U.S.A. Weather past 2 weeks in Urbana, Illinois, U.S.A.

Now
70 °F

Clear.


Feels Like: 67 °F
Forecast: 71 / 89 °F
Wind: 6 mph from Southwest

Location: University Of Illinois-Willard Airport

Current Time: Sep 3, 2015 at 3:02:19 AM

Latest Report: Sep 3, 2015 at 1:53 AM


Visibility: 7 mi

Pressure: 29.98 "Hg

Humidity: 90%

Dew point: 67 °F

Location of UrbanaLocation

Historic Weather in Urbana — Graph

°F

Urbana temperature yesterday

Maximum temperature yesterday: 91 °F (at 2:53 PM)
Minimum temperature yesterday: 68 °F (at 4:53 AM)
Average temperature yesterday: 78 °F

Past Weeks' High & Low Weather Summary

 TemperatureHumidityPressure
High91 °F (Sep 2, 2:53 PM)100% (Sep 1, 8:53 PM)30.22 "Hg (Sep 1, 8:53 PM)
Low50 °F (Aug 25, 5:53 AM)37% (Aug 24, 3:53 PM)29.72 "Hg (Aug 19, 5:53 AM)
Average69 °F77%30.04 "Hg
* Reported Aug 19 1:53 AM — Sep 3 1:53 AM, Urbana, Weather by CustomWeather, © 2015

Note: Actual official high and low records may vary slightly from our data, if they occured in-between our weather recording intervals... More about our weather records

Advertising

Urbana weather history for previous 24 hours

 ConditionsComfort  
Time TempWeatherWind HumidityBarometerVisibility
1:53 AM
Thu, Sep 3
70 °FClear.6 mph90%29.98 "Hg7 mi
12:53 AM70 °FClear.5 mph90%29.99 "Hg7 mi
11:53 PM
Wed, Sep 2
71 °FClear.6 mph87%30.00 "Hg7 mi
10:53 PM72 °FClear.5 mph87%30.00 "Hg8 mi
9:53 PM74 °FClear.6 mph82%30.00 "Hg9 mi
8:53 PM75 °FClear.6 mph82%30.01 "Hg10 mi
7:53 PM78 °FPassing clouds.6 mph76%29.98 "Hg10 mi
6:53 PM82 °FPassing clouds.5 mph65%29.98 "Hg10 mi
5:53 PM88 °FScattered clouds.8 mph50%29.98 "Hg10 mi
4:53 PM88 °FSunny.7 mph50%29.98 "Hg10 mi
3:53 PM91 °FScattered clouds.7 mph45%29.99 "Hg10 mi
2:53 PM91 °FSunny.10 mph45%30.01 "Hg10 mi
1:53 PM88 °FPassing clouds.10 mph50%30.03 "Hg10 mi
12:53 PM89 °FPassing clouds.9 mph52%30.05 "Hg10 mi
11:53 AM85 °FSunny.8 mph61%30.08 "Hg10 mi
10:53 AM85 °FSunny.8 mph65%30.09 "Hg10 mi
9:53 AM81 °FSunny.5 mph74%30.11 "Hg9 mi
8:53 AM77 °FSunny.6 mph82%30.11 "Hg7 mi
7:53 AM73 °FFog.5 mph90%30.11 "Hg5 mi
6:53 AM69 °FFog.3 mph93%30.10 "Hg3 mi
5:53 AM69 °FFog.5 mph93%30.08 "Hg5 mi
4:53 AM68 °FFog.3 mph96%30.06 "Hg4 mi
3:53 AM69 °FFog.3 mph93%30.06 "Hg4 mi
Weather by CustomWeather, © 2015

See weather overviewHow to use our weather pages